BEIDOU-2 IGSO-3

Last updated on Tue Oct 08 2024 00:02:38 GMT+0000 (Coordinated Universal Time)

1 37384U 11013A 24280.91377203 -.00000173 00000+0 00000+0 0 9999 2 37384 61.5222 46.0397 0032664 176.4677 230.3244 1.00281043 49474
UTC large
Height (km)
Speed (km/s)
/
Latitude / Longitude
Inclination (degrees)
Orbital Period (minutes)
Azimuth
Elevation
Range (km)
Doppler Factor

Next 0 passes for location: London (51.5072 / 0.1276)

Sorry there are no passes over London.